Location: Arrakis Observatory
(44.1122°N, 95.7153°W)
Time: 04:25:59
(UTC-06:00)

Daily predictions for brighter satellites

Satellite Brightness Start Highest point End
(mag) Time Altitude Azimuth Time Altitude Azimuth Time Altitude Azimuth
Cosmos 2237 Rocket 4.1 03:38:45 25° E 03:38:45 25° E 03:42:10 10° NE
Cosmos 2333 Rocket 4.2 03:40:56 23° NE 03:40:56 23° NE 03:43:12 10° NE
BREEZE-M DEB (TANK) 4.4 03:53:27 50° NE 03:53:27 50° NE 04:05:49 10° E
Cosmos 2219 Rocket 3.9 04:06:55 25° NNE 04:06:55 25° NNE 04:09:06 10° NNE
SL-16 R/B 4.4 04:06:52 10° SSE 04:11:03 22° E 04:15:15 10° NE
Okean O Rocket 4.4 04:13:30 10° NNE 04:13:41 11° NNE 04:13:41 11° NNE
Meteor 2-10 Rocket 4.2 04:19:33 58° E 04:19:33 58° E 04:24:54 10° SSE
CZ-4B R/B 3.8 04:25:38 10° NNE 04:31:14 58° ESE 04:36:47 10° S
DELTA 2 R/B (1) 4.2 04:35:12 48° SSE 04:35:12 48° SSE 04:40:03 10° E
ADEOS II 4.5 04:33:27 10° N 04:33:41 11° N 04:33:41 11° N
ISS -0.6 04:42:08 12° SE 04:42:08 12° SE 04:42:26 10° SE
PAYLOAD B 4.2 04:34:47 10° NNE 04:40:23 79° ESE 04:41:26 59° S
Cosmos 2278 Rocket 2.8 04:44:17 44° S 04:44:17 44° S 04:48:07 10° SSE
Cosmos 1000 Rocket 4.3 04:37:55 10° S 04:44:10 88° W 04:50:24 10° N
Cosmos 2173 Rocket 3.8 04:46:58 73° WNW 04:47:15 74° W 04:53:34 10° S
Cosmos 1862 Rocket 4.5 04:53:25 20° N 04:56:20 49° ENE 05:00:39 10° SSE
Gbstr 26 Del rocket 3.7 04:58:39 47° NNE 04:58:39 47° NNE 05:01:47 10° NE
Cosmos 1459 Rocket 4.0 05:02:47 52° WSW 05:02:47 52° WSW 05:07:53 10° SSW
In-Cosmos 22 Rocket 4.2 04:56:22 10° S 05:02:03 85° E 05:07:54 10° NNE
Meteor 1-28 Rocket 3.9 05:00:55 10° SSE 05:03:43 47° SE 05:03:43 47° SE
Cosmos 2100 Rocket 4.3 05:07:54 45° WSW 05:07:54 45° WSW 05:12:59 10° SSW
CZ-4B DEB 4.1 05:05:29 10° N 05:10:58 62° WNW 05:13:08 36° SW
Atlas Centaur 2 4.2 05:08:15 22° SW 05:11:59 31° S 05:19:10 10° SE
Landsat 4 3.9 05:09:23 10° SSE 05:12:29 61° SSE 05:12:29 61° SSE
Lacrosse 5 rocket 3.6 05:11:04 10° S 05:14:56 27° SE 05:18:53 10° ENE
NOSS 0 Rocket 4.1 05:14:20 47° WNW 05:14:58 48° WNW 05:20:59 10° NNE
Cosmos 2233 Rocket 4.4 05:09:27 10° N 05:15:33 61° E 05:21:36 10° SSE
Cosmos 1802 Rocket 4.0 05:13:45 26° NNW 05:17:00 51° W 05:22:59 10° SSW
IRS-1C Rocket 4.0 05:13:50 10° N 05:19:04 66° WNW 05:24:15 10° SSW
BREEZE-M DEB (TANK) 3.1 05:18:50 60° WNW 05:19:22 70° N 05:22:50 10° ENE
SJ-6F 4.2 05:16:08 10° N 05:20:15 77° WNW 05:24:23 10° SSW
Cosmos 2237 Rocket 2.4 05:20:39 45° WNW 05:21:12 47° WNW 05:26:43 10° NNE
Cosmos 2333 Rocket 3.1 05:23:00 31° NW 05:23:00 31° NW 05:27:19 10° N
COSMOS 2428 4.4 05:24:51 17° NNW 05:24:51 17° NNW 05:27:02 10° N
NOAA 6 4.5 05:18:26 10° NNE 05:23:31 62° ESE 05:28:34 10° S
Meteor 2-3 Rocket 4.0 05:18:48 10° S 05:24:32 70° E 05:30:14 10° NNE
Okean-O 3.1 05:22:42 10° NNE 05:27:08 63° ESE 05:31:31 10° S
SKYMED 2 3.8 05:23:01 10° SSE 05:27:20 71° ENE 05:31:41 10° N
CZ-2C R/B 3.7 05:23:57 10° S 05:28:23 56° W 05:29:30 43° NW
USA 267 4.3 05:22:48 10° ENE 05:28:33 35° NNE 05:32:34 18° NW
Cosmos 1470 Rocket 3.4 05:24:56 10° SSW 05:29:24 75° W 05:33:53 10° N
DEBRIS 2.3 05:30:33 68° W 05:30:51 75° SSW 05:33:09 10° SE
IDEFIX/ARIANE 42P 3.5 05:27:34 10° NNE 05:32:37 50° E 05:37:38 10° S
Feng Yun 1-1 Rocket 4.5 05:29:19 10° NNE 05:35:17 81° ESE 05:41:12 10° SSW
Cosmos 1302 Rocket 4.2 05:34:59 30° WSW 05:37:03 46° WNW 05:42:05 10° N
Cosmos 1503 Rocket 3.8 05:34:05 18° NNW 05:38:01 77° WSW 05:43:10 10° SSE
Cosmos 1782 4.0 05:37:21 10° N 05:41:11 43° ENE 05:44:58 10° SSE
Cosmos 1825 3.6 05:39:10 10° SSE 05:42:42 40° E 05:46:16 10° NNE
NOSS 3-1 (C) 4.4 05:37:09 13° NNW 05:44:02 67° NE 05:52:21 10° SE
Cosmos 2123 Rocket 4.1 05:40:14 10° SSW 05:46:16 53° WNW 05:52:24 10° N
Cosmos 1725 Rocket 4.1 05:40:27 10° NNW 05:46:24 50° W 05:52:18 10° SSW
Cosmos 2219 Rocket 3.6 05:48:40 18° NW 05:48:40 18° NW 05:52:01 10° N
Okean O Rocket 3.8 05:50:45 10° NNW 05:51:08 12° NNW 05:51:08 12° NNW
Meteor 1-26 Rocket 4.3 05:48:39 10° NNW 05:53:59 50° W 05:59:22 10° SSW
SL-16 R/B 2.2 05:49:06 10° SW 05:54:41 59° WNW 06:00:19 10° NNE
Cosmos 1606 3.0 05:51:18 10° N 05:55:06 66° E 05:58:53 10° SSE
Cosmos 1703 Rocket 3.6 05:50:42 10° N 05:55:06 78° E 05:59:27 10° SSE
Abrixas rocket 2.8 05:54:56 35° NW 05:55:39 41° N 05:58:43 10° ENE
PAYLOAD A 4.1 05:51:31 10° NNE 05:56:43 88° ESE 06:02:04 10° SSW
Cosmos 1603 4.5 05:53:49 10° S 05:59:17 56° ESE 06:04:51 10° NNE
Cosmos 1869 Rocket 4.1 05:57:35 10° S 06:01:52 62° E 06:06:13 10° NNE
USA 229 DEB 3.9 05:57:16 14° NW 06:03:22 61° WSW 06:10:34 10° SSE
USA 229 3.9 05:57:21 14° NW 06:03:29 61° WSW 06:10:40 10° SSE
Cosmos 968 Rocket 3.7 05:59:00 10° NNW 06:04:18 76° ENE 06:09:34 10° SSE
NOSS 3-1 (A) 4.4 05:59:20 10° NW 06:06:50 68° NE 06:15:10 10° SE
CZ-4B R/B 4.3 06:06:59 10° N 06:11:22 24° WNW 06:15:44 10° WSW
MSX 4.2 06:06:22 10° NNE 06:12:11 72° ESE 06:17:56 10° S
Cosmos 1933 Rocket 4.3 06:10:14 10° SW 06:14:02 29° WNW 06:17:53 10° NNW
Cosmos 1892 3.9 06:11:11 10° SW 06:14:10 22° WNW 06:17:09 10° NNW
ISS -1.4 06:14:49 10° SW 06:15:08 10° SW 06:15:37 10° SW
COSMO-SKYMED 1 3.2 06:11:32 10° SSW 06:15:29 35° W 06:19:30 10° NNW
USA 32 4.3 06:11:21 10° SSW 06:16:18 44° W 06:21:19 10° N
CZ-2C R/B 2.5 06:11:09 10° NNE 06:16:23 85° WNW 06:21:30 10° SSW
CZ-4 R/B 3.8 06:14:51 10° NE 06:18:12 27° E 06:21:33 10° SSE
Cosmos 405 Rocket 2.9 06:15:44 10° N 06:19:26 71° E 06:23:08 10° SSE
DELTA 2 R/B (1) 4.1 06:15:58 13° W 06:20:44 51° S 06:26:08 10° ESE
Cosmos 2369 Rocket 2.7 06:16:48 10° NNW 06:22:22 62° ENE 06:27:53 10° SE
SJ-12 3.9 06:22:34 10° NNE 06:26:44 86° W 06:30:50 10° SSW
USA 215 3.4 06:32:20 10° NE 06:38:55 85° SE 06:45:28 10° SW
Meteor 2-6 Rocket 4.4 06:33:33 10° NNW 06:39:16 60° W 06:45:05 10° S
Cosmos 1464 Rocket 4.0 06:33:54 10° NNW 06:40:08 71° W 06:46:24 10° S
Gbstr 26 Del rocket 4.0 06:41:20 10° WNW 06:45:06 28° N 06:48:29 10° NE
Cosmos 1408 3.5 06:43:21 10° SW 06:46:37 28° WNW 06:49:53 10° NNW
Cosmos 2084 Rocket 4.3 06:45:09 10° WNW 06:48:27 27° WSW 06:51:45 10° S
SMAP 3.3 06:44:21 10° NNE 06:49:02 79° ESE 06:53:40 10° S
ERS-2 4.5 06:46:45 10° NE 06:50:01 29° E 06:53:16 10° SSE
Lacrosse 5 rocket 1.8 06:49:25 10° WSW 06:53:58 56° NW 06:58:36 10° NE
Meteor 1-27 Rocket 3.8 06:50:22 10° NNW 06:56:13 68° W 07:01:56 10° S
